Retour au catalogue

COSMOS 1275 DEB

ActifPO
NORAD 12712·DEBRIS·🇷🇺 Russia

Lancé Jun 4, 1981 depuis Plesetsk Cosmodrome

Loading…

Prochains Passages (prochaines 24 heures)

TLE

FraisSource: Space-Track

Époque: Sep 14, 2026, 10:14 UTC

1 12712U 81053BG  26257.42660431  .00000830  00000-0  65331-3 0  9990
2 12712  82.9808 249.2789 0067994 197.0178 316.8723 13.89607867263847

Suivez COSMOS 1275 DEB en temps réel avec AllMySat

Download on the App Store